This demonstration page uses our WeatherBlox Daily Observations layout. Learn more.

Left ArrowRight Arrow

Hourly Observations for January 24, 2016

Temp ( °F °C ) Dew Point ( °F °C ) Humidity (%) Winds ( mph kmh ) Pressure ( in mb ) Visibility ( mi km ) Precip ( " mm )
12:53 am 00:53 Clear 41 5 27 -2.8 57 57 ESE 8 13 29.90 1013 10 16 0.00 0.00
1:53 am 01:53 Clear 38 3.3 28 -2.2 68 68 SE 8 13 29.88 1012 10 16 0.00 0.00
2:53 am 02:53 Clear 37 2.8 28 -2.2 70 70 ESE 7 11 29.88 1012 10 16 0.00 0.00
3:53 am 03:53 Clear 36 2.2 27 -2.8 70 70 E 5 7 29.87 1011 10 16 0.00 0.00
4:53 am 04:53 Clear 36 2.2 27 -2.8 70 70 E 5 7 29.85 1011 10 16 0.00 0.00
5:53 am 05:53 Clear 33 0.6 26 -3.3 75 75 ENE 3 6 29.85 1011 10 16 0.00 0.00
6:53 am 06:53 Clear 32 0 26 -3.3 79 79 Calm 29.87 1012 10 16 0.00 0.00
7:53 am 07:53 Sunny 29 -1.7 24 -4.4 82 82 N 6 9 29.89 1012 10 16 0.00 0.00
8:53 am 08:53 Sunny 35 1.7 27 -2.8 72 72 Calm 29.89 1012 10 16 0.00 0.00
9:53 am 09:53 Sunny 47 8.3 29 -1.7 50 50 SSE 6 9 29.88 1012 10 16 0.00 0.00
10:53 am 10:53 Sunny 54 12.2 30 -1.1 40 40 SSE 5 7 29.87 1012 10 16 0.00 0.00
11:53 am 11:53 Sunny 63 17.2 26 -3.3 25 25 SSW 6 9 29.83 1010 10 16 0.00 0.00
12:53 pm 12:53 Sunny 69 20.6 26 -3.3 20 20 SW 12 19 29.78 1009 10 16 0.00 0.00
1:53 pm 13:53 Sunny 73 22.8 27 -2.8 18 18 SW 13 20 29.73 1007 10 16 0.00 0.00
2:53 pm 14:53 Sunny 77 25 25 -3.9 14 14 W 10 17 29.69 1005 10 16 0.00 0.00
3:53 pm 15:53 Sunny 78 25.6 18 -7.8 10 10 W 21 33 29.68 1005 10 16 0.00 0.00
4:53 pm 16:53 Sunny 76 24.4 19 -7.2 12 12 W 14 22 29.68 1005 10 16 0.00 0.00
5:53 pm 17:53 Sunny 71 21.7 16 -8.9 12 12 W 17 28 29.70 1006 10 16 0.00 0.00
6:53 pm 18:53 Clear 60 15.6 18 -7.8 19 19 W 9 15 29.72 1007 10 16 0.00 0.00
7:53 pm 19:53 Clear 55 12.8 19 -7.2 24 24 W 10 17 29.75 1008 10 16 0.00 0.00
8:53 pm 20:53 Clear 62 16.7 17 -8.3 17 17 SW 10 17 29.74 1007 10 16 0.00 0.00
9:53 pm 21:53 Clear 64 17.8 13 -10.6 13 13 WSW 15 24 29.72 1006 10 16 0.00 0.00
10:53 pm 22:53 Clear 62 16.7 13 -10.6 14 14 W 16 26 29.74 1007 10 16 0.00 0.00
11:53 pm 23:53 Clear 55 12.8 15 -9.4 20 20 W 13 20 29.77 1008 10 16 0.00 0.00

Powered by AerisWeather